Voltar ao catálogo

PEGASUS DEB

AtivoPO
NORAD 24236·DEBRIS·🇺🇸 United States

Lançado May 19, 1994 de Vandenberg Space Force Base

Loading…

Próximas Passagens (próximas 24 horas)

TLE

AtualizadoSource: Space-Track

Época: Sep 14, 2026, 08:31 UTC

1 24236U 94029LK  26257.35498215  .00007245  00000-0  84978-3 0  9997
2 24236  81.4290 222.0235 0306239  75.1499 288.3401 14.56527419547834

Acompanhe PEGASUS DEB em tempo real com AllMySat

Download on the App Store